Regional Weather Roundup
Issued by NWS

Home | Current Version | Previous Version | Text Only | Print | Product List | Glossary Off
Versions: 1 2 3 4 5 6 7 8 9 10 11 12 13 14 15 16 17 18 19 20 21 22 23 24 25 26 27 28 29 30 31 32 33 34 35 36 37 38 39 40 41 42 43 44 45 46 47 48 49 50

000
ASUS43 KIND 280000
RWRIN

WEATHER ROUNDUP FOR INDIANA
NATIONAL WEATHER SERVICE INDIANAPOLIS IN
800 PM EDT TUE JUN 27 2017

NOTE: "FAIR" INDICATES FEW OR NO CLOUDS BELOW 12,000 FEET WITH NO
SIGNIFICANT WEATHER AND/OR OBSTRUCTIONS TO VISIBILITY.

* - STATION DOES NOT REPORT WEATHER SUCH AS PRECIPITATION OR FOG.

+ - STATION NOT QUALITY CONTROLLED BY THE NATIONAL WEATHER SERVICE.
    USE DATA WITH CAUTION...ESPECIALLY DEWPOINT AND RELATIVE
    HUMIDITY OBSERVATIONS.

INZ001>003-010>013-019-020-280100-
NORTHWEST INDIANA

CITY           SKY/WX    TMP DP  RH WIND       PRES   REMARKS
GARY /AIRPORT/ MOSUNNY   73  46  38 NE6       30.04F
KNOX *+        SUNNY     72  36  26 CALM      30.05F
MICHIGAN CITY+ SUNNY     72  45  37 CALM      30.05F
MONTICELLO +   SUNNY     72  46  39 W3        30.06S
6HR MIN TEMP:  69; 6HR MAX TEMP:  74;

RENSSELAER +   SUNNY     72  36  26 S7        30.06S

$$

LMZ046-743>745-280100-
SOUTHERN LAKE MICHIGAN

STATION/POSITION TIME  TEMP    WIND        PRES    WAVE
                       AIR SEA DIR/SP/G            HT
                 (UTC) (F)     (DEG/KT/KT) (MB)    (FT)
BURNS HARBOR     2340   70      60/  7/  9 1017.6F
MICHIGAN CITY    2330   68      40/  6/  6   N/A
5NW MICH CITY    2350   67 66   80/  6/  8   N/A     1

$$

INZ004-005-014>016-021>024-280100-
NORTH CENTRAL INDIANA

CITY           SKY/WX    TMP DP  RH WIND       PRES   REMARKS
ELKHART        SUNNY     70  41  35 W6        30.06F
GOSHEN         SUNNY     70  41  34 NW6       30.06S
6HR MIN TEMP:  69; 6HR MAX TEMP:  73;

PERU/GRISSOM   SUNNY     71  50  47 W6        30.05F
6HR MIN TEMP:  68; 6HR MAX TEMP:  73;

SOUTH BEND     SUNNY     70  43  37 CALM      30.06F
6HR MIN TEMP:  70; 6HR MAX TEMP:  72;


$$

INZ006>009-017-018-025>027-280100-
NORTHEAST INDIANA

CITY           SKY/WX    TMP DP  RH WIND       PRES   REMARKS
ANGOLA *+      SUNNY     72  64  78 W8        30.06S
FORT WAYNE     MOSUNNY   70  48  45 W9        30.07F
6HR MIN TEMP:  68; 6HR MAX TEMP:  74;

KENDALLVILLE + MOSUNNY   70  43  37 NW6       30.07S

$$

INZ028-029-035-036-043>045-051>053-280100-
WEST CENTRAL INDIANA

CITY           SKY/WX    TMP DP  RH WIND       PRES   REMARKS
CRAWFORDSVL +  SUNNY     70  47  44 CALM      30.08S
6HR MIN TEMP:  67; 6HR MAX TEMP:  71;

GREENCASTLE +  SUNNY     70  46  43 CALM      30.09S
LAFAYETTE      SUNNY     71  47  42 S3        30.06F
6HR MIN TEMP:  69; 6HR MAX TEMP:  73;

TERRE HAUTE    SUNNY     72  45  37 S3        30.07F
6HR MIN TEMP:  71; 6HR MAX TEMP:  76;


$$

INZ030>032-037>040-046>048-054>057-064-065-280100-
CENTRAL INDIANA

CITY           SKY/WX    TMP DP  RH WIND       PRES   REMARKS
COLUMBUS       SUNNY     72  37  28 CALM      30.09S
GREENWOOD *+   SUNNY     72  42  34 CALM      30.09S
INDIANAPOLIS   MOSUNNY   71  47  42 CALM      30.07F
6HR MIN TEMP:  70; 6HR MAX TEMP:  74;

-EAGLE CREEK   SUNNY     73  45  36 CALM      30.07F
6HR MIN TEMP:  69; 6HR MAX TEMP:  74;

KOKOMO +       SUNNY     72  48  42 W8        30.09S
6HR MIN TEMP:  69; 6HR MAX TEMP:  73;

MT COMFORT *+  SUNNY     72  45  37 CALM      30.09F
SHELBYVILLE    SUNNY     73  44  35 SW3       30.08S
6HR MIN TEMP:  68; 6HR MAX TEMP:  76;


$$

INZ033-034-041-042-049-050-058-059-280100-
EAST CENTRAL INDIANA

CITY           SKY/WX    TMP DP  RH WIND       PRES   REMARKS
MUNCIE         SUNNY     72  44  36 NW3       30.08F
6HR MIN TEMP:  70; 6HR MAX TEMP:  75;

RICHMOND +     SUNNY     68  43  40 W3        30.11S

$$

INZ060-061-067>069-081>083-085>088-280100-
SOUTHWEST INDIANA

CITY           SKY/WX    TMP DP  RH WIND       PRES   REMARKS
EVANSVILLE     SUNNY     78  50  37 N3        30.07F
6HR MIN TEMP:  75; 6HR MAX TEMP:  81;

HUNTINGBURG *+ SUNNY     74  52  46 N3        30.08S
6HR MIN TEMP:  74; 6HR MAX TEMP:  77;


$$

INZ062-063-066-070>080-084-089>092-280100-
SOUTH CENTRAL AND SOUTHEAST INDIANA

CITY           SKY/WX    TMP DP  RH WIND       PRES   REMARKS
BLOOMINGTON    SUNNY     73  45  36 SW3       30.08F
6HR MIN TEMP:  72; 6HR MAX TEMP:  76;

MADISON *+     SUNNY     72  41  33 CALM      30.12S
SEYMOUR +      SUNNY     75  50  41 CALM      30.08S

$$





USA.gov is the U.S. government's official web portal to all federal, state and local government web resources and services.